STARLINK-37956, 69711

Orbit data source: Space-Track

STARLINK-37956, 69711 is a payload satellite owned by SpaceX/Seattle (US) in SSO that was launched on Sun, 28 Jun 2026 UTC via an FALCON 9 launch vehicle from the Air Force Western Test Range (AFWTR). Payload-class satellites include a variety of spacecraft equipped with specific instruments for various scientific and technological missions. These include communications satellites like Starlink; space stations such as the ISS; scientific satellites like the Hubble; Earth observation satellites from companies like Planet Labs, Umbra, and HawkEye 360; GPS; miniature CubeSats for education and research; and military/defense satellites.

Loading next visibility...
Identifier
69711, 2026-147H
Orbit
SSO
Country
Flag of USUS
Related business
Manufacturer
SpaceX/Seattle
Mission
Operational Commercial Communications
Bus & Motor
STARLINK V2MO, Unknown motor
Mass
575 kg wet, ~530 kg dry
Launch date (UTC)
2026-06-28 (2 months ago)
Launch vehicle
FALCON 9
Launch site
Air Force Western Test Range (AFWTR)
Object type
Payload
Rocket body
Debris
Shape & HBR
Box + 1 Pan, 17.7 m
Radar Cross Section
41.120 m², Large (>1 m²)

Expand to show TLE details & history
Last TLE update: 1 day ago

TLE from 1 day ago
0 STARLINK-37956
1 69711U 26147H   26236.36572807  .00017974  00000-0  55762-3 0  9997
2 69711  97.2850 273.0873 0001052  94.4579 265.6784 15.33453080 10071
Epoch: 2026-08-24T08:46Z
TLE epoch observation values (Epoch: 2026-08-24T08:46:38.905Z)
Latitude
-0°
Longitude
168.77673°
Altitude
468.685 km
Speed
7.632 km/s
True Right ascension
18h 12m 20s
True Declination
0° 00' 00"
Sunlit
Object was in full shadow at epoch
Visualization orbit readout
Latitude
Unknown
Longitude
Unknown
Altitude
Unknown
Speed
Unknown
Apparent Right ascension
Unknown
Apparent Declination
Unknown
Sunlit
N/A
Visualization observer readout
Local Sidereal Time
00:12:42
Azimuth
Unknown
Elevation
Unknown
Doppler factor
Unknown
Orbital elements
Apogee altitude
463.182 km
Perigee altitude
461.742 km
Semi-major axis
6,840.599 km
Eccentricity
0.00011
Inclination
97.285°
RAAN
273.0873°
Arg. of periapsis
94.4579°
True anomaly
265.66638°
Mean anomaly
265.6784°
Eccentric anomaly
265.67239°
Mean motion
3.83621 °/min
Orbital period
93.84 mins
BSTAR
0.00055762
Loading maneuver chart data...
Computing Atmospheric mass density...
Loading historical data...
Loading historical data...
Loading historical data...
Loading historical data...
Loading historical data...
Loading historical data...
Loading historical data...

Documentation

Showing up to 5 results
|